Location: Краматорск
(48.7390°N, 37.5843°E)
Time: 06:54:17
(UTC+02:00)

ISS - Visible Passes

Search period start: 29 November 2021 00:00
Search period end: 09 December 2021 00:00
Orbit: 417 x 423 km, 51.6° (Epoch: 29 November)

Date Brightness Start Highest point End Pass type
(mag) Time Alt. Az. Time Alt. Az. Time Alt. Az.
29 Nov -3.4 16:32:55 10° W 16:36:16 53° N 16:38:57 15° ENE visible
29 Nov -2.0 18:10:01 10° WNW 18:11:56 30° WNW 18:11:56 30° WNW visible
30 Nov -3.5 17:22:47 10° WNW 17:26:09 53° N 17:26:39 47° NE visible
01 Dec -3.3 16:35:33 10° WNW 16:38:53 50° N 16:41:25 16° ENE visible
01 Dec -1.9 18:12:29 10° WNW 18:14:24 31° WNW 18:14:24 31° WNW visible
02 Dec -3.8 17:25:16 10° WNW 17:28:40 75° NNE 17:29:13 58° E visible
03 Dec -3.6 16:38:01 10° WNW 16:41:25 61° NNE 16:44:06 15° E visible
03 Dec -1.8 18:14:58 10° WNW 18:17:06 30° WSW 18:17:06 30° WSW visible
04 Dec -3.3 17:27:40 10° WNW 17:31:01 60° SSW 17:32:07 37° SE visible
05 Dec -3.7 16:40:23 10° WNW 16:43:48 83° SSW 16:47:12 10° ESE visible
05 Dec -1.3 18:17:47 10° W 18:20:15 19° SW 18:20:18 19° SW visible
06 Dec -1.8 17:30:12 10° W 17:33:09 28° SW 17:35:43 12° SSE visible
07 Dec -2.4 16:42:46 10° WNW 16:45:59 40° SSW 16:49:11 10° SE visible
08 Dec -0.5 17:33:33 10° WSW 17:35:01 12° SW 17:36:29 10° SSW visible
